SCP
0 0 0 0 0 0 0 0 0 0 0 0 0 0 0 0 0 0 0 0 0 0 0 0 0 0 0 1 1 1 1 1 1 1 1 1 1 1 1 1 1 0 0 0 0 0 0 0 0
0 0 0 0 0 0 0 0 0 0 0 0 0 0 0 0 0 0 0 0 0 0 0 0 0 0 0 1 1 1 1 1 1 1 1 1 1 1 1 1 1 0 0 0 0 0 0 0 0
0 0 0 0 0 0 0 0 0 0 0 0 0 0 0 0 0 0 0 0 0 0 0 0 0 0 0 1 1 1 1 1 1 1 1 1 1 1 1 1 0 0 0 0 0 0 0 0 0
0 0 0 0 0 0 0 0 0 0 0 0 0 0 0 0 0 0 0 0 0 0 0 0 1 1 1 1 1 1 1 1 1 1 1 1 1 1 1 0 0 0 0 0 0 0 0 0 0
0 0 0 0 0 0 0 0 0 0 0 0 0 0 0 0 0 0 0 0 0 0 0 0 1 1 1 0 1 1 1 1 1 1 1 1 1 1 1 0 0 0 0 0 0 0 0 0 0
0 0 0 0 0 0 0 0 0 0 0 0 0 0 0 0 0 0 0 0 0 0 0 0 0 1 1 1 1 1 1 1 1 1 1 1 1 1 1 1 0 0 0 0 0 0 0 0 0
0 0 0 0 0 0 0 0 0 0 0 0 0 0 0 0 0 0 0 0 0 0 0 0 0 1 1 1 1 1 1 1 1 1 1 1 1 1 1 1 1 0 0 0 0 0 0 0 0
0 0 0 0 0 0 0 0 0 0 0 0 0 0 0 0 0 0 0 0 0 0 0 0 0 0 1 1 1 1 1 1 1 1 1 1 1 1 1 1 1 1 1 0 0 0 0 0 0
0 0 0 0 0 0 0 0 0 0 0 0 0 0 0 0 0 0 0 0 0 0 0 0 0 0 0 1 1 1 1 1 1 1 1 1 1 1 1 1 1 1 1 1 1 0 0 0 0
0 0 0 0 0 0 0 0 0 0 0 0 0 0 0 1 1 0 0 0 0 0 0 0 0 0 0 0 1 1 1 1 1 1 1 1 0 0 1 1 1 1 1 1 1 1 0 0 1
0 0 0 0 0 0 0 0 0 0 0 0 0 0 1 1 1 0 0 0 0 0 0 0 0 0 0 0 0 1 1 1 0 0 0 0 0 0 0 0 1 1 1 1 1 1 1 1 1
0 0 0 0 0 0 0 0 0 0 0 0 0 1 1 1 0 0 0 0 0 0 0 0 0 0 0 0 0 0 0 1 0 0 0 0 0 0 0 0 0 0 1 1 1 1 1 1 1
0 0 0 0 0 0 0 0 0 0 0 0 0 1 1 0 0 0 0 0 0 0 0 0 0 0 0 0 0 0 0 0 0 0 0 0 0 0 0 0 0 0 0 1 1 1 1 1 1
0 0 0 0 0 0 0 0 0 0 0 0 0 0 0 0 0 0 0 0 0 0 0 0 0 0 0 0 0 0 0 0 0 0 0 0 0 0 0 0 0 0 0 0 0 0 1 1 1
0 0 0 0 0 0 0 0 0 0 0 0 0 0 0 0 0 0 0 0 0 0 0 0 0 0 0 0 0 0 0 0 0 0 0 0 0 0 0 0 0 0 0 0 0 0 0 0 0
0 0 0 0 0 0 0 0 0 0 0 0 0 0 0 0 0 0 0 0 0 0 0 0 0 0 0 0 0 0 0 0 0 0 0 0 0 0 0 0 0 0 0 0 0 0 0 0 0
0 0 0 0 0 0 0 0 0 0 0 0 0 0 0 0 0 0 0 0 0 0 0 0 0 0 0 0 0 0 0 0 0 0 0 0 0 0 0 0 0 0 0 0 0 0 0 0 0
0 0 0 0 0 0 0 0 0 0 0 0 0 0 0 0 0 0 0 0 0 0 0 0 0 0 0 0 0 0 0 0 0 0 0 0 0 0 0 0 0 0 0 0 0 0 0 0 0
0 0 0 0 0 0 0 0 0 0 0 0 0 0 0 0 0 0 0 0 0 0 0 0 0 0 0 0 0 0 0 0 0 0 0 0 0 0 0 0 0 0 0 0 0 0 0 0 0
0 0 0 0 0 0 0 0 0 0 0 0 0 0 0 0 0 0 0 0 0 0 0 0 0 0 0 0 0 0 0 0 0 0 0 0 0 0 0 0 0 0 0 0 0 0 0 0 0
0 0 0 0 0 0 0 0 0 0 0 0 0 0 0 0 0 0 0 0 0 0 0 0 0 0 0 0 0 0 0 0 0 0 0 0 0 0 0 0 0 0 0 0 0 0 0 0 0
0 0 0 0 0 0 0 0 0 0 0 0 0 0 0 0 0 0 0 0 0 0 0 0 0 0 0 0 0 0 0 0 0 0 0 0 0 0 0 0 0 0 0 0 0 0 0 0 0
-0 -0 0 0 0 0 0 0 0 0 0 0 0 0 0 0 0 0 0 0 0 0 0 0 0 0 0 0 0 0 0 0 0 0 0 0 0 0 0 0 0 0 0 0 0 0 0 0 0
-0 -0 0 0 0 0 0 0 0 0 0 0 0 0 0 0 0 0 0 0 0 0 0 0 0 0 0 0 0 0 0 0 0 0 0 0 0 0 0 0 0 0 0 0 0 0 0 0 0
0 0 0 0 0 0 0 0 0 0 0 0 0 0 0 0 0 0 0 0 0 0 0 0 0 0 0 0 0 0 0 0 0 0 0 0 0 0 0 0 0 0 0 0 0 0 0 0 0
0 0 0 0 0 0 0 0 0 0 0 0 0 0 0 0 0 0 0 0 0 0 0 0 0 0 0 0 0 0 0 0 0 0 0 0 0 0 0 0 0 0 0 0 0 0 0 0 0
0 0 0 0 0 0 0 0 0 0 0 0 0 0 0 0 0 0 0 0 0 0 0 0 0 0 0 0 0 0 0 0 0 0 0 0 0 0 0 0 0 0 0 0 0 0 0 0 0
0 0 -0 0 0 0 0 0 0 0 0 0 0 0 0 0 0 0 0 0 0 0 0 0 0 0 0 0 0 0 0 0 0 0 0 0 0 0 0 0 0 0 0 0 0 0 0 0 0
0 0 0 0 0 0 0 0 0 0 0 0 0 0 0 0 0 0 0 0 0 0 0 0 0 0 0 0 0 0 0 0 0 0 0 0 0 0 0 0 0 0 0 0 0 0 0 0 0
0 0 0 0 0 0 0 0 0 0 0 0 0 0 0 0 0 0 0 0 0 0 0 0 0 0 0 0 0 0 0 0 0 0 0 0 0 0 0 0 0 0 0 0 0 0 0 0 0
Wind_Speed
1 1 2 3 5 5 2 3 2 3 2 1 2 3 3 3 2 2 0 4 7 7 7 10 12 11 11 12 11 12 12 12 13 13 13 13 12 12 12 12 11 10 10 10 9 8 7 7 6
1 1 3 4 5 2 4 3 2 2 1 1 3 3 3 3 2 2 1 3 7 7 6 8 12 11 11 11 11 11 12 12 12 12 12 12 12 11 11 11 10 10 9 8 8 7 7 6 6
2 2 4 5 4 3 3 3 2 2 0 1 2 3 3 2 1 1 1 5 7 6 5 7 12 11 11 11 11 11 11 11 11 11 11 11 11 10 10 9 9 9 8 8 7 7 7 6 6
2 4 5 5 1 4 4 4 3 2 1 2 2 3 3 3 2 3 6 7 7 5 4 6 11 10 10 10 10 10 10 10 10 10 10 10 9 9 9 9 8 8 7 7 7 6 6 6 6
4 4 5 2 3 4 4 4 2 0 1 2 3 2 2 4 6 8 7 7 6 5 3 3 8 8 8 9 9 9 9 9 9 9 9 9 8 8 8 8 8 7 7 7 6 6 6 6 6
4 5 4 1 4 4 3 3 1 0 1 2 3 2 1 3 5 6 6 6 6 5 3 2 6 7 7 7 7 7 7 7 8 8 8 8 7 7 7 7 7 7 7 7 7 6 6 6 6
4 4 3 2 2 4 3 2 1 1 2 1 2 3 1 2 3 5 6 6 6 5 4 2 2 3 5 6 6 6 6 6 6 7 7 7 6 6 6 6 7 7 7 7 7 7 7 6 7
4 5 1 1 2 4 3 2 0 2 1 2 3 4 2 2 4 5 6 6 5 4 4 2 2 2 2 2 5 5 5 5 5 6 6 5 5 5 6 5 6 7 7 8 8 8 8 7 7
3 5 1 4 4 4 2 1 1 2 3 2 2 2 4 8 7 6 5 4 3 3 2 2 2 2 2 1 3 3 4 4 4 4 6 5 2 2 3 5 6 7 7 8 8 8 8 7 7
4 3 5 4 4 3 2 1 1 2 3 2 4 5 8 8 7 7 5 4 3 2 1 1 1 2 2 1 1 0 1 1 1 1 2 1 1 2 3 4 6 6 7 7 8 8 7 5 3
3 4 4 3 3 2 1 0 1 3 2 3 6 8 8 7 6 6 4 4 3 2 2 2 2 2 2 1 1 0 0 0 1 1 1 0 0 1 1 1 2 3 4 3 3 3 2 2 2
2 4 3 3 1 1 1 1 1 1 2 2 6 10 9 8 7 6 5 4 3 3 2 2 2 2 1 1 1 1 0 0 1 1 1 1 0 1 1 1 1 2 1 2 2 2 2 3 3
3 3 2 2 1 1 2 1 1 1 1 5 7 8 8 7 6 4 3 3 3 3 2 2 2 2 2 1 1 1 1 1 1 1 1 2 1 2 2 2 1 2 2 2 2 2 3 3 3
3 1 2 3 1 0 3 1 2 2 3 6 6 5 5 5 5 4 2 2 2 2 2 1 1 2 2 1 1 1 1 1 1 1 1 2 2 2 2 2 2 2 2 2 2 3 3 3 2
0 2 4 2 1 0 3 2 2 2 5 6 5 3 3 3 4 4 3 3 2 2 1 1 1 1 1 1 1 1 1 1 1 1 2 2 2 2 2 2 2 2 2 2 2 2 2 2 2
3 3 3 4 1 1 3 2 3 3 6 5 3 3 2 1 2 3 3 2 1 1 2 1 1 1 1 1 0 0 1 1 1 1 1 2 2 2 2 2 2 2 1 1 2 1 1 2 2
4 1 2 4 1 1 2 2 2 2 5 4 3 3 3 1 1 1 2 3 2 2 2 1 1 1 1 1 0 0 0 0 1 1 1 2 2 2 2 2 2 1 1 1 2 1 1 2 3
2 1 2 3 2 2 1 1 2 1 3 2 2 2 2 2 2 1 2 2 2 1 1 1 1 1 1 1 1 1 1 1 1 1 1 1 1 1 1 1 2 1 1 1 1 2 2 2 3
3 2 3 4 2 2 1 1 2 1 2 2 1 1 2 2 1 1 2 2 1 1 2 2 1 1 1 1 1 0 1 1 1 1 2 1 1 2 1 1 1 1 1 2 2 2 2 2 1
3 2 3 2 1 3 3 1 2 1 1 2 2 3 3 2 1 1 2 2 1 1 2 1 1 1 1 1 1 1 1 1 1 2 2 2 2 2 1 1 1 1 1 2 2 2 2 2 1
2 5 4 2 1 2 3 3 2 1 1 1 1 2 2 3 3 2 1 1 1 1 1 1 1 1 1 1 1 1 1 1 1 1 1 2 2 2 1 1 1 1 1 2 3 2 3 2 2
4 5 5 3 3 1 1 1 3 2 2 1 2 2 1 1 2 2 2 1 1 2 1 1 1 1 0 0 1 1 0 1 2 1 1 2 2 2 2 2 2 2 2 2 3 2 3 3 3
4 1 3 3 3 2 2 2 4 1 2 3 3 2 1 1 1 2 2 2 2 1 1 0 0 0 0 1 1 1 1 1 1 1 1 2 2 2 2 2 1 2 2 2 3 2 3 3 3
3 5 5 5 4 1 1 2 4 3 4 3 3 2 1 0 1 1 0 0 0 0 1 1 1 1 1 0 1 1 2 1 1 2 2 2 2 2 3 2 1 1 1 2 2 3 3 3 3
4 5 4 5 4 3 1 2 5 4 2 2 2 2 1 0 1 1 0 0 1 0 0 1 1 2 2 1 1 2 2 2 2 2 2 2 2 2 3 2 2 2 2 2 2 3 3 2 2
2 5 6 3 3 3 2 2 4 2 1 1 0 0 1 1 1 0 1 1 1 1 1 1 1 1 2 1 2 2 2 1 2 2 2 2 3 3 3 2 2 2 2 2 2 2 3 2 2
3 2 4 6 1 1 3 3 4 1 3 3 2 2 1 1 1 1 1 1 1 1 1 1 1 2 2 2 2 2 2 2 2 2 2 2 2 2 2 2 2 2 2 2 2 2 3 2 2
3 6 5 5 3 2 4 3 4 3 2 1 0 0 1 1 1 1 2 1 1 1 1 1 1 2 2 2 2 2 2 2 2 2 2 2 2 2 2 2 2 2 3 2 2 2 3 2 2
2 4 5 4 4 4 2 6 4 4 4 3 3 2 2 1 1 2 2 2 2 1 1 1 1 2 2 2 2 2 2 2 1 1 1 1 1 1 1 1 2 2 2 2 2 2 2 2 2
2 3 5 4 2 3 3 7 3 3 3 3 2 2 2 1 1 2 2 1 1 2 2 2 2 3 3 2 2 2 2 1 1 1 1 1 1 1 1 1 2 2 2 2 2 3 3 2 2
Wind_Direction
174 98 94 66 55 47 315 274 258 302 318 337 73 102 129 121 158 209 311 129 125 137 151 158 155 150 144 138 134 134 133 133 134 136 138 141 143 146 148 151 154 157 159 161 162 163 163 164 164
126 122 63 60 79 51 289 270 278 271 206 83 52 64 71 60 51 83 79 119 128 135 141 155 156 152 147 143 141 141 139 139 141 142 144 146 149 151 152 154 159 161 164 167 169 171 173 176 178
136 83 82 75 102 178 248 264 257 300 19 104 76 55 71 46 59 96 105 124 123 129 136 157 154 154 152 150 148 148 146 147 148 149 150 150 153 156 160 163 167 168 172 175 180 183 186 190 193
96 54 58 74 185 231 231 263 284 316 3 44 98 71 71 28 51 99 108 113 114 114 122 153 152 155 155 155 153 153 152 154 155 154 154 155 159 164 170 174 176 179 184 188 192 197 201 204 207
63 75 62 40 269 259 250 262 262 302 349 53 88 95 50 25 76 98 106 108 108 100 96 128 148 154 157 157 158 159 159 159 160 160 162 165 170 175 181 185 188 191 196 201 207 210 213 217 220
59 68 82 275 280 284 274 274 260 19 89 86 97 105 58 59 83 105 104 97 98 99 94 106 147 155 159 160 160 163 163 164 167 168 171 174 179 186 195 201 201 205 209 214 220 222 226 229 233
102 97 146 213 276 294 280 295 174 128 92 100 123 110 70 79 88 103 97 91 87 87 85 85 120 153 163 165 166 169 166 169 173 176 178 182 189 195 203 214 219 218 221 225 229 232 233 236 240
124 105 113 237 240 270 285 321 24 104 117 101 116 138 183 154 108 95 88 85 89 85 85 81 78 101 127 162 172 171 171 175 180 183 182 193 202 208 216 221 229 230 233 237 239 241 242 241 244
93 80 212 225 211 252 281 332 353 65 98 74 77 118 138 128 118 102 91 80 86 96 88 94 92 93 97 133 180 179 181 185 192 196 193 196 207 221 230 233 236 239 240 241 245 246 246 247 251
96 144 227 222 204 219 262 222 203 88 78 81 72 82 115 127 129 125 127 134 144 145 150 131 130 113 108 132 87 59 195 200 196 183 196 186 189 225 239 255 252 251 252 252 254 251 249 248 249
154 199 243 262 236 225 231 252 53 137 175 185 159 146 139 135 137 140 149 157 163 169 185 179 161 140 141 131 124 131 320 270 218 202 201 172 201 267 270 271 281 280 268 264 269 267 248 239 232
179 243 235 264 226 165 196 170 88 158 225 168 151 148 146 151 162 167 167 168 159 158 200 206 178 161 162 153 151 159 190 240 237 205 202 147 221 267 265 263 279 282 276 270 265 258 250 245 243
203 254 255 261 308 163 116 111 127 314 103 106 117 135 148 157 165 169 165 154 154 172 191 194 176 173 169 159 172 160 187 205 211 183 189 176 194 240 258 263 263 269 272 268 265 261 259 250 250
219 257 308 310 324 43 109 67 97 258 120 121 128 145 155 160 159 154 155 170 182 188 195 192 165 166 163 177 183 198 188 175 186 205 215 198 202 218 238 257 267 267 260 259 255 255 253 253 248
62 10 343 339 18 335 94 8 246 192 131 129 136 146 161 160 154 166 183 186 191 182 158 165 164 135 163 188 207 191 207 180 196 224 220 213 215 219 239 251 260 261 260 263 257 255 253 258 255
45 42 343 313 18 15 115 252 276 144 135 137 143 154 150 162 165 166 161 150 153 130 115 117 149 133 163 177 228 235 223 207 213 224 221 224 221 213 228 246 256 255 248 249 256 259 256 262 266
33 26 283 304 346 73 129 243 308 137 136 145 162 161 158 153 131 140 146 148 155 159 121 93 107 143 155 135 111 332 321 260 248 248 242 235 223 213 213 240 256 256 256 263 268 260 242 252 263
230 238 279 277 289 94 127 282 334 97 124 146 152 163 161 174 203 177 159 146 145 140 132 146 160 139 128 109 81 32 357 329 312 273 259 247 245 237 221 241 260 260 252 264 262 261 258 249 255
171 176 262 268 245 115 142 7 342 26 101 130 162 190 203 212 202 142 146 135 131 141 159 182 186 188 131 100 109 69 295 301 305 282 274 271 263 257 232 252 268 259 242 248 248 245 268 267 254
166 197 257 297 70 122 107 38 343 41 152 179 187 207 210 199 148 153 151 146 173 196 182 180 207 208 194 179 178 193 223 269 270 288 314 296 292 283 258 234 252 252 254 272 257 235 240 258 230
216 203 217 205 64 73 98 2 351 357 22 32 323 255 222 203 197 188 173 176 210 228 201 192 224 228 227 197 95 41 29 1 341 332 330 318 316 315 296 265 255 263 253 260 263 241 230 249 251
251 223 191 166 125 283 123 276 300 291 323 318 303 307 290 260 199 184 187 216 243 238 220 201 202 213 237 134 130 138 198 263 265 275 278 305 314 306 299 293 278 264 259 266 273 261 239 233 249
212 153 134 132 137 69 25 135 284 308 282 274 273 274 289 270 185 185 200 220 228 200 168 212 122 359 329 143 154 164 235 254 283 309 319 315 309 306 310 308 299 287 274 267 274 282 257 230 233
122 71 64 56 74 50 255 161 273 253 247 260 266 287 311 337 154 175 180 91 308 60 56 32 22 325 311 253 212 195 227 258 302 310 306 308 304 302 313 318 301 281 279 273 270 268 263 245 239
74 81 34 5 14 260 265 164 253 267 258 230 237 259 266 116 87 106 135 256 293 309 40 339 336 318 319 295 262 240 235 237 248 264 265 279 291 291 291 290 283 283 277 282 283 281 280 260 247
160 137 152 193 225 280 338 242 264 304 351 16 73 122 71 37 24 16 274 248 237 259 266 271 274 291 302 288 277 277 266 249 256 256 250 262 266 269 278 283 293 297 297 303 300 290 280 274 256
135 149 157 129 118 337 293 294 306 23 39 41 51 60 42 311 326 308 304 273 241 243 252 259 282 300 299 287 280 287 281 261 262 273 265 266 275 284 304 304 300 306 307 304 302 295 294 289 279
115 136 92 102 127 281 299 285 271 275 263 275 284 269 289 316 350 317 302 286 268 261 268 277 248 258 269 275 274 277 274 265 255 260 268 276 284 286 298 316 315 317 314 313 314 306 307 314 302
69 78 92 100 136 156 262 275 238 225 225 212 225 231 234 255 270 279 288 303 308 308 306 312 313 301 293 293 298 301 298 288 278 278 275 273 277 285 292 305 310 317 321 325 332 317 325 327 325
114 137 138 135 201 167 182 267 284 221 217 189 205 234 241 231 257 270 288 323 325 317 327 333 321 311 301 302 309 309 311 321 344 321 299 298 302 313 319 325 336 330 333 336 331 321 330 327 323